Location: Austin
(30.3000°N, 97.7500°W)
Time: 11:19:15
(UTC-05:00)

CSL-04 Rocket - Pass Details

Date: 05 September 2024
Orbit: 804 x 859 km, 98.7° (Epoch: 11 September)

Event Time Altitude Azimuth Distance (km) Brightness Sun altitude
Exits shadow 21:55:20 49° 197° (SSW) 1,060 4.1 -27.1°
Maximum altitude 21:56:40 68° 258° (WSW) 897 3.9 -27.3°
Drops below altitude 10° 22:02:01 10° 341° (NNW) 2,427 6.6 -28.4°
Sets 22:04:23 0° 344° (NNW) 3,355 7.4 -28.8°
